Location: Washington
(38.8950°N, 77.0370°W)
Time: 05:49:39
(UTC-04:00)

Amateur Radio Satellites - All Passes

Search period start: 01 August 2014 05:19
Search period end: 02 August 2014 05:19
Location: Washington, 38.8950°N, 77.0370°W

Satellite Date Start Highest point End Downlink Frequencies (MHz)
Time Altitude Azimuth
AO-7 01 Aug 05:31:02 05:39:21 69° 105° (ESE) 05:47:34 29.400 - 29.500 MHz
STRAND 1 01 Aug 05:46:11 05:49:04 15° 62° (ENE) 05:51:57 ?
JAS-2 01 Aug 06:05:01 06:07:23 13° 87° (E) 06:09:41 435.800 - 435.900 CW/SSB, 435.910 FM
TMSAT-1 01 Aug 06:09:46 06:11:00 11° 301° (WNW) 06:12:14 436.925 FM
ISS 01 Aug 06:10:17 06:13:20 33° 226° (SW) 06:16:23 145.800 FM
KITSAT 1 01 Aug 06:13:15 06:21:22 90° 118° (ESE) 06:29:31 435.175 FM
PANSAT 01 Aug 06:15:52 06:18:16 16° 187° (S) 06:20:41 not established
JAS-1B 01 Aug 06:17:17 06:21:58 15° 312° (NW) 06:26:23 435.800 - 435.900 CW/SSB
MaSat-1 01 Aug 06:18:45 06:24:00 62° 63° (ENE) 06:28:52 437.345 MHz
Uosat F 01 Aug 06:25:35 06:29:50 29° 293° (WNW) 06:34:04 435.120 FM
Hamsat 01 Aug 06:34:57 06:38:51 32° 97° (E) 06:42:45 145.90 MHz
Saudisat 1A 01 Aug 07:03:24 07:07:47 72° 119° (ESE) 07:12:12 436.775 MHz
STRAND 1 01 Aug 07:22:35 07:27:41 65° 258° (WSW) 07:32:48 ?
AO-7 01 Aug 07:24:50 07:31:26 27° 303° (WNW) 07:38:01 29.400 - 29.500 MHz
JAS-2 01 Aug 07:47:31 07:53:16 70° 286° (WNW) 07:58:29 435.800 - 435.900 CW/SSB, 435.910 FM
SO-67 01 Aug 07:51:15 07:54:25 32° 97° (E) 07:57:33 435.3500 MHz FM
MaSat-1 01 Aug 07:57:41 08:00:40 16° 260° (W) 08:03:31 437.345 MHz
Sapphire 01 Aug 08:03:31 08:06:05 13° 42° (NE) 08:08:38 437.095 MHz 1200 baud AX-25 AFSK
Hamsat 01 Aug 08:11:22 08:14:36 21° 292° (WNW) 08:17:51 145.90 MHz
KITSAT 1 01 Aug 08:11:38 08:17:51 24° 320° (NW) 08:24:06 435.175 FM
PCSat 01 Aug 08:35:22 08:39:44 24° 50° (NE) 08:44:04 145.825 MHz
Saudisat 1A 01 Aug 08:45:21 08:47:52 15° 317° (NW) 08:50:23 436.775 MHz
SO-67 01 Aug 09:25:30 09:27:10 13° 292° (WNW) 09:28:50 435.3500 MHz FM
Sapphire 01 Aug 09:44:57 09:50:24 79° 61° (ENE) 09:55:49 437.095 MHz 1200 baud AX-25 AFSK
Oscar 11 01 Aug 09:48:13 09:50:19 13° 92° (E) 09:52:24 145.825 FM, Beacon 2401.500 USB
HO-68 01 Aug 10:05:04 10:12:08 61° 103° (ESE) 10:19:10 435.675 MHz FM
PCSat 01 Aug 10:18:10 10:23:25 50° 248° (WSW) 10:28:36 145.825 MHz
UKube-1 01 Aug 10:41:13 10:45:34 79° 285° (WNW) 10:49:54 145.840 MHz, 145.915 MHz
SO-50 01 Aug 10:53:45 10:56:21 15° 109° (ESE) 10:58:58 436.795 FM
RS-15 01 Aug 11:16:48 11:22:46 16° 98° (E) 11:28:38 29.354 - 29.394 USB, Beacon 29.352 USB
Oscar 11 01 Aug 11:22:34 11:26:46 50° 287° (WNW) 11:30:57 145.825 FM, Beacon 2401.500 USB
Sapphire 01 Aug 11:30:51 11:33:05 13° 258° (WSW) 11:35:19 437.095 MHz 1200 baud AX-25 AFSK
HO-68 01 Aug 11:53:43 11:59:18 26° 300° (WNW) 12:04:53 435.675 MHz FM
FUNcube-1 01 Aug 11:54:02 11:58:10 61° 285° (WNW) 12:02:22 145.950 - 145.970 MHz USB
KITSAT 1 01 Aug 12:15:02 12:17:21 11° 22° (NNE) 12:19:39 435.175 FM
SO-50 01 Aug 12:32:05 12:36:26 52° 305° (NW) 12:40:53 436.795 FM
Oscar 19 01 Aug 12:34:43 12:37:27 15° 62° (ENE) 12:40:12 437.125 CW, 437.150 USB
UOSAT-12 01 Aug 12:35:17 12:36:58 12° 107° (ESE) 12:38:40 437.025 FM, 437.400 FM
Oscar 16 01 Aug 13:01:55 13:06:13 28° 67° (ENE) 13:10:31 437.025 USB, Beacon 2401.1428
JAS-1B 01 Aug 13:16:53 13:23:54 25° 55° (NE) 13:31:13 435.800 - 435.900 CW/SSB
RS-15 01 Aug 13:22:07 13:33:16 79° 117° (ESE) 13:44:11 29.354 - 29.394 USB, Beacon 29.352 USB
ITAMSAT 1 01 Aug 13:30:52 13:34:56 24° 66° (ENE) 13:39:00 435.822 SSB
Uribyol 2 01 Aug 13:48:34 13:53:16 36° 69° (ENE) 13:57:59 436.500 FM
AO-27 01 Aug 13:50:17 13:55:01 36° 69° (ENE) 13:59:45 436.795 MHz FM
AO-Echo 01 Aug 13:57:57 14:02:57 44° 71° (ENE) 14:07:58 ?
KITSAT 1 01 Aug 14:08:13 14:15:36 37° 48° (NE) 14:22:54 435.175 FM
TMSAT-1 01 Aug 14:08:55 14:12:06 16° 62° (ENE) 14:15:18 436.925 FM
Oscar 19 01 Aug 14:11:08 14:16:12 67° 258° (WSW) 14:21:19 437.125 CW, 437.150 USB
UOSAT-12 01 Aug 14:11:54 14:16:28 70° 303° (WNW) 14:21:10 437.025 FM, 437.400 FM
Gurwin Techsat 1B 01 Aug 14:33:46 14:38:37 38° 69° (ENE) 14:43:29 435.225 FM
AO-7 01 Aug 14:39:56 14:45:03 18° 51° (NE) 14:50:09 29.400 - 29.500 MHz
Oscar 16 01 Aug 14:40:51 14:45:26 33° 263° (W) 14:50:02 437.025 USB, Beacon 2401.1428
JAS-1B 01 Aug 15:03:59 15:13:02 88° 255° (WSW) 15:23:01 435.800 - 435.900 CW/SSB
ITAMSAT 1 01 Aug 15:09:16 15:14:09 41° 261° (W) 15:19:04 435.822 SSB
Uribyol 2 01 Aug 15:28:31 15:32:47 26° 265° (W) 15:37:04 436.500 FM
AO-27 01 Aug 15:30:16 15:34:34 26° 265° (W) 15:38:53 436.795 MHz FM
Saudisat 1A 01 Aug 15:31:28 15:35:38 39° 53° (NE) 15:39:45 436.775 MHz
RS-15 01 Aug 15:37:11 15:46:46 33° 322° (NW) 15:56:21 29.354 - 29.394 USB, Beacon 29.352 USB
AO-Echo 01 Aug 15:37:47 15:41:51 22° 266° (W) 15:45:57 ?
TMSAT-1 01 Aug 15:46:14 15:51:28 63° 259° (WSW) 15:56:45 436.925 FM
UOSAT-12 01 Aug 15:56:09 15:57:30 11° 322° (NW) 15:58:52 437.025 FM, 437.400 FM
Uosat F 01 Aug 15:58:44 16:03:22 38° 70° (ENE) 16:08:01 435.120 FM
KITSAT 1 01 Aug 16:03:28 16:11:13 53° 248° (WSW) 16:18:56 435.175 FM
Gurwin Techsat 1B 01 Aug 16:14:18 16:18:38 25° 265° (W) 16:23:01 435.225 FM
AO-7 01 Aug 16:28:12 16:36:34 81° 70° (ENE) 16:44:57 29.400 - 29.500 MHz
JAS-1B 01 Aug 16:58:35 17:04:44 20° 274° (W) 17:11:17 435.800 - 435.900 CW/SSB
OPAL 01 Aug 17:04:51 17:09:51 54° 103° (ESE) 17:14:53 ?
Saudisat 1A 01 Aug 17:11:43 17:14:56 20° 249° (WSW) 17:18:09 436.775 MHz
Hamsat 01 Aug 17:27:57 17:31:00 20° 68° (ENE) 17:34:04 145.90 MHz
Uosat F 01 Aug 17:38:17 17:42:14 23° 265° (W) 17:46:13 435.120 FM
JAS-2 01 Aug 17:55:50 18:03:10 49° 70° (ENE) 18:09:58 435.800 - 435.900 CW/SSB, 435.910 FM
RS-15 01 Aug 17:57:43 18:04:06 17° 357° (N) 18:10:31 29.354 - 29.394 USB, Beacon 29.352 USB
AO-7 01 Aug 18:24:24 18:30:07 20° 268° (W) 18:35:53 29.400 - 29.500 MHz
OPAL 01 Aug 18:44:51 18:48:18 19° 298° (WNW) 18:51:47 ?
Hamsat 01 Aug 19:03:02 19:06:45 31° 263° (W) 19:10:31 145.90 MHz
SO-50 01 Aug 19:25:33 19:28:11 15° 42° (NE) 19:30:50 436.795 FM
STRAND 1 01 Aug 19:34:34 19:39:29 46° 100° (E) 19:44:22 ?
JAS-2 01 Aug 19:41:22 19:48:13 34° 264° (W) 19:54:41 435.800 - 435.900 CW/SSB, 435.910 FM
SO-67 01 Aug 19:55:48 19:59:07 43° 261° (W) 20:02:27 435.3500 MHz FM
MaSat-1 01 Aug 20:08:48 20:12:24 31° 105° (ESE) 20:16:31 437.345 MHz
RS-15 01 Aug 20:12:57 20:21:57 28° 33° (NNE) 20:31:06 29.354 - 29.394 USB, Beacon 29.352 USB
HO-68 01 Aug 20:32:20 20:38:54 41° 65° (ENE) 20:45:28 435.675 MHz FM
SO-50 01 Aug 21:04:34 21:09:21 85° 240° (WSW) 21:14:11 436.795 FM
UOSAT-12 01 Aug 21:04:56 21:06:24 11° 38° (NE) 21:07:53 437.025 FM, 437.400 FM
STRAND 1 01 Aug 21:14:39 21:18:19 20° 296° (WNW) 21:21:58 ?
ISS 01 Aug 21:16:11 21:18:12 15° 129° (SE) 21:20:14 145.800 FM
UKube-1 01 Aug 21:35:16 21:39:38 77° 75° (ENE) 21:44:01 145.840 MHz, 145.915 MHz
MaSat-1 01 Aug 21:46:09 21:49:43 25° 306° (NW) 21:53:43 437.345 MHz
Oscar 11 01 Aug 22:16:02 22:20:20 76° 258° (WSW) 22:24:39 145.825 FM, Beacon 2401.500 USB
HO-68 01 Aug 22:20:04 22:26:34 37° 262° (W) 22:33:07 435.675 MHz FM
RS-15 01 Aug 22:25:03 22:36:11 83° 59° (ENE) 22:47:44 29.354 - 29.394 USB, Beacon 29.352 USB
UOSAT-12 01 Aug 22:42:42 22:47:26 70° 57° (ENE) 22:52:05 437.025 FM, 437.400 FM
Sapphire 01 Aug 22:46:38 22:48:06 11° 102° (ESE) 22:49:33 437.095 MHz 1200 baud AX-25 AFSK
FUNcube-1 01 Aug 22:49:05 22:53:23 90° 281° (W) 22:57:37 145.950 - 145.970 MHz USB
ISS 01 Aug 22:51:20 22:54:36 52° 325° (NW) 22:57:53 145.800 FM
PCSat 01 Aug 23:16:20 23:20:40 25° 107° (ESE) 23:25:00 145.825 MHz
UOSAT-12 02 Aug 00:25:07 00:26:57 12° 253° (WSW) 00:28:47 437.025 FM, 437.400 FM
Sapphire 02 Aug 00:25:18 00:30:42 86° 298° (WNW) 00:36:09 437.095 MHz 1200 baud AX-25 AFSK
ISS 02 Aug 00:30:11 00:31:55 13° 344° (NNW) 00:33:40 145.800 FM
RS-15 02 Aug 00:39:05 00:47:16 25° 258° (WSW) 00:55:44 29.354 - 29.394 USB, Beacon 29.352 USB
PCSat 02 Aug 00:58:41 01:03:48 43° 304° (NW) 01:08:58 145.825 MHz
AO-40 02 Aug 01:07:43 03:42:45 22° 121° (ESE) 04:57:12 Beacon 2401.320
Uribyol 2 02 Aug 02:04:06 02:06:38 14° 91° (E) 02:09:10 436.500 FM
AO-27 02 Aug 02:06:07 02:08:42 14° 91° (E) 02:11:15 436.795 MHz FM
AO-Echo 02 Aug 02:08:23 02:11:02 14° 90° (E) 02:13:38 ?
Sapphire 02 Aug 02:12:03 02:14:56 14° 317° (NW) 02:17:49 437.095 MHz 1200 baud AX-25 AFSK
Oscar 19 02 Aug 02:24:00 02:29:01 48° 100° (E) 02:34:00 437.125 CW, 437.150 USB
Gurwin Techsat 1B 02 Aug 02:52:18 02:55:34 16° 92° (E) 02:58:49 435.225 FM
Oscar 16 02 Aug 02:53:03 02:58:15 85° 284° (WNW) 03:03:26 437.025 USB, Beacon 2401.1428
JAS-1B 02 Aug 02:53:36 03:01:34 35° 92° (E) 03:08:24 435.800 - 435.900 CW/SSB
ITAMSAT 1 02 Aug 03:23:02 03:28:14 79° 103° (ESE) 03:33:23 435.822 SSB
Uribyol 2 02 Aug 03:41:25 03:46:32 65° 287° (WNW) 03:51:38 436.500 FM
AO-27 02 Aug 03:43:30 03:48:39 65° 287° (WNW) 03:53:45 436.795 MHz FM
ISS 02 Aug 03:45:02 03:47:37 20° 24° (NNE) 03:50:11 145.800 FM
AO-Echo 02 Aug 03:45:18 03:50:13 57° 287° (WNW) 03:54:56 ?
TMSAT-1 02 Aug 04:03:20 04:08:34 58° 101° (E) 04:13:45 436.925 FM
Oscar 19 02 Aug 04:04:16 04:07:59 20° 295° (WNW) 04:11:42 437.125 CW, 437.150 USB
Uosat F 02 Aug 04:09:39 04:11:42 12° 91° (E) 04:13:45 435.120 FM
PANSAT 02 Aug 04:11:14 04:13:45 17° 175° (S) 04:16:16 not established
OPAL 02 Aug 04:18:46 04:23:43 84° 73° (ENE) 04:28:42 ?
Gurwin Techsat 1B 02 Aug 04:30:41 04:35:53 58° 287° (WNW) 04:41:04 435.225 FM
MaSat-1 02 Aug 04:31:01 04:31:23 10° 43° (NE) 04:31:45 437.345 MHz
AO-7 02 Aug 04:32:07 04:39:02 29° 96° (E) 04:45:53 29.400 - 29.500 MHz
Oscar 16 02 Aug 04:35:56 04:36:47 10° 301° (WNW) 04:37:37 437.025 USB, Beacon 2401.1428
KITSAT 1 02 Aug 04:36:19 04:42:45 27° 105° (ESE) 04:49:11 435.175 FM
JAS-1B 02 Aug 04:43:38 04:52:22 51° 294° (WNW) 04:59:47 435.800 - 435.900 CW/SSB
ITAMSAT 1 02 Aug 05:04:50 05:07:01 13° 300° (WNW) 05:09:12 435.822 SSB
